FENGYUN 1C DEB

Satellite information

Favourite Embed

Satellite Type and Status

DEBRISIN ORBIT

Key statistics

Satellite FENGYUN 1C DEB at a glance.

Uptime

9610

Days in orbit

Revolutions

≈ 14.3

Per day

Orbit

SSO

Sun Synchronous Orbit

Inclination

99.1

Latest

Satellite identification and parameters

Extended collection of information and parameters for FENGYUN 1C DEB.

Object identification

Identified? True

Debris? True

Object name: FENGYUN 1C DEB

International designator: 1999-025CWP

Object number (NORAD): 32241

Object ID (CCSDS): 32241

Country: PEOPLES REPUBLIC OF CHINA (PRC)

Current information (Y/N): Y

RCS size: SMALL

Orbital parameters

Period: 100.876 minutes

Inclination: 99.0896 deg

SMA: 7178.239 km

Apoapsis: 906.84 km

Periapsis: 693.368 km

RAAN: 260.8026 deg

Eccentricy: 0.01486937

Argument of periapsis: 183.3907 deg

Mean anomaly: 176.6278 deg

Mean motion: 14.27499325 rev/day

Mean motion (dot): 0.00002078 rev/day2

B* drag term: 0.00076953723 1/REarth

Two-line elements (TLE)

Creation date: Aug. 24, 2025, 2:08 a.m.

Reference frame: TEME

Reference center: EARTH

Epoch: Aug. 23, 2025, 7:35 p.m. UTC

TLE line 0: 0 FENGYUN 1C DEB

TLE line 1: 1 32241U 99025CWP 25235.81646516 .00002078 00000-0 76954-3 0 9992

TLE line 2: 2 32241 99.0896 260.8026 0148694 183.3907 176.6278 14.27499325922402

Live tracking on map

Real-time ground track for satellite FENGYUN 1C DEB.

In-orbit conjunctions

A list of the most updated potential collisions computed for object FENGYUN 1C DEB.

Target Orbit TCA Probability of collision Miss distance Type
QAEM 100 R/B LEO 2025-07-27 04:29:21 0.0006105784 134.0 (m) ROCKET BODY
COSMOS 972 LEO 2025-02-02 13:07:20 0.0001243244 590.0 (m) PAYLOAD

Associated space launch

Chinese polar orbiting meteorological satellite

FENGYUN 1C DEB was lifted into orbit during the mission ‘Long March 4B | Feng Yun 1C’, on board a Long March 4B space rocket.

The launch took place on May 10, 1999, 1:33 a.m. from Launch Complex 7.

For more information about the launch, click the button.

Launch to space Long March 4B | Feng Yun 1C
Long March 4B | Feng Yun 1C

Agency: N/A

Status: Launch Successful

Launch date: May 10, 1999, 1:33 a.m. UTC

Rocket: Long March 4B

Launch pad: Launch Complex 7

Location: Taiyuan Satellite Launch Center, People's Republic of China

...

Latest news about this satellite

There are no fresh news available about this satellite. Check back as we update our databases every day.


Newsletter sign-up

Weekly statistics, charts and insights to help you stay on top of the space industry.